Location: Huesca
(42.1318°N, 0.4078°W)
Time: 10:07:16
(UTC+02:00)

TIGRISAT - Pass Details

Date: 01 May 2024
Orbit: 594 x 672 km, 97.7° (Epoch: 21 May)

Event Time Altitude Azimuth Distance (km) Brightness Sun altitude
Rises 06:24:19 0° 182° (S) 2,897 ? -6.3°
Reaches altitude 10° 06:26:36 10° 189° (S) 1,982 ? -6.0°
Maximum altitude 06:30:42 44° 261° (W) 854 ? -5.3°
Drops below altitude 10° 06:34:46 10° 334° (NNW) 1,958 ? -4.6°
Sets 06:37:01 0° 341° (NNW) 2,858 ? -4.2°
